[[{"header":{"parameterUnit":"m.s-1","parameterCategory":1,"la1":30.2991,"la2":30.254,"lo1":-89.0895,"lo2":-89.0444,"dy":0.0017,"dx":0.0017,"nx":28,"ny":28,"refTime":"2024-06-12T03:00:00:Z","depth":0,"parameterNumber":2,"parameterNumberName":"U-component_of_WINDS"},"data":[0,0,0,0,0,0,0,0,0,0,0,0,0,0,0,0,0,0,0,0,0,0,0,0,0,0,0,0,0,0,0,0,0,0,0,0,0,0,0,0,0,0,0,0,0,0,0,0,0,0,0,0,0,0,0,0,0,0,-0.3372,-0.3373,0,-0.3447,-0.3448,-0.3449,-0.3494,-0.3495,-0.3495,-0.3495,-0.3569,-0.357,-0.3572,0,0,0,0,0,0,0,0,0,0,0,0,0,-0.3265,-0.3267,-0.3372,-0.3373,-0.3374,-0.3447,-0.3448,-0.3449,-0.3494,-0.3495,-0.3495,-0.3495,-0.3568,-0.357,-0.3572,0,0,0,0,0,0,0,0,0,0,0,0,0,-0.3323,-0.3268,-0.3372,-0.3406,-0.3409,-0.3447,-0.3448,-0.3449,-0.3494,-0.3495,-0.3495,-0.3495,-0.3567,-0.357,-0.3573,-0.3582,0,0,-0.3581,-0.3582,0,0,0,0,0,0,0,0,-0.332,-0.3327,-0.34,-0.3403,-0.3408,-0.3462,-0.3437,-0.3493,-0.3494,-0.3462,-0.3495,-0.3495,-0.3533,-0.3538,-0.3551,-0.3585,-0.3588,-0.3581,-0.3582,-0.3584,-0.3584,0,0,0,0,0,0,0,-0.3316,-0.3324,-0.3402,-0.3401,-0.3405,-0.3416,-0.3424,-0.3448,-0.3494,-0.3465,-0.3468,-0.3477,-0.3535,-0.3549,-0.3553,-0.3589,-0.3581,-0.3583,-0.3585,-0.3586,-0.3633,-0.3633,0,0,0,0,0,0,-0.3307,-0.332,-0.3399,-0.3404,-0.3364,-0.3417,-0.3427,-0.3444,-0.3494,-0.3502,-0.3476,-0.3478,-0.3544,-0.355,-0.3556,-0.357,-0.3583,-0.3586,-0.3587,-0.3633,-0.3633,-0.3633,0,0,0,0,0,0,-0.3304,-0.3313,-0.3396,-0.3363,-0.3374,-0.3419,-0.3438,-0.3445,-0.3459,-0.3503,-0.3511,-0.3482,-0.3545,-0.3552,-0.3575,-0.3573,-0.3587,-0.3589,-0.3634,-0.3633,-0.3633,-0.3597,0,0,0,0,0,0,-0.3301,-0.3312,-0.3317,-0.3363,-0.3376,-0.3415,-0.3437,-0.3446,-0.3464,-0.3468,-0.3511,-0.3518,-0.3545,-0.3571,-0.3577,-0.3577,-0.3592,-0.3634,-0.3633,-0.3633,-0.3598,-0.3595,-0.3592,0,0,0,0,0,-0.3297,-0.3303,-0.3317,-0.3326,-0.3383,-0.3415,-0.3422,-0.3454,-0.3464,-0.3468,-0.3496,-0.3517,-0.3572,-0.3573,-0.3581,-0.3581,-0.3634,-0.3634,-0.3633,-0.36,-0.3596,-0.3593,0,0,0,0,0,0,-0.3255,-0.331,-0.3326,-0.3347,-0.3376,-0.3422,-0.3429,-0.3449,-0.3475,-0.3477,-0.3515,-0.3525,-0.3543,-0.3564,-0.3564,-0.3591,-0.3605,-0.3606,-0.3577,-0.3574,-0.3571,-0.3566,-0.3594,0,0,0,0,0,-0.3249,-0.3271,-0.3317,-0.3332,-0.3345,-0.3384,-0.3399,-0.3422,-0.3453,-0.3465,-0.3494,-0.3523,-0.3546,-0.3561,-0.3586,-0.3601,-0.3611,-0.3605,-0.3602,-0.3599,-0.36,-0.3609,-0.3607,-0.363,-0.363,-0.363,0,0,-0.3235,-0.3268,-0.3279,-0.3324,-0.3349,-0.337,-0.3394,-0.3416,-0.3431,-0.3468,-0.3491,-0.3513,-0.3547,-0.3566,-0.3576,-0.3584,-0.3595,-0.3599,-0.3596,-0.3598,-0.3608,-0.3606,-0.3604,-0.363,-0.363,-0.363,0,0,-0.3222,-0.3249,-0.3264,-0.3288,-0.3326,-0.3352,-0.3355,-0.3398,-0.3415,-0.3439,-0.3466,-0.3484,-0.3525,-0.3548,-0.3565,-0.3558,-0.3578,-0.3565,-0.3549,-0.3558,-0.3556,-0.3555,-0.3552,-0.3551,-0.3565,-0.3565,-0.3565,0,-0.32,-0.3234,-0.3269,-0.3288,-0.3307,-0.3341,-0.3356,-0.3377,-0.342,-0.3432,-0.344,-0.3491,-0.3516,-0.3541,-0.3539,-0.3552,-0.3556,-0.3561,-0.3554,-0.3553,-0.3552,-0.355,-0.3549,-0.3563,-0.3563,-0.3563,-0.3564,0,-0.3205,-0.3228,-0.3235,-0.3277,-0.3296,-0.3313,-0.3349,-0.3364,-0.3384,-0.3409,-0.3432,-0.3463,-0.3494,-0.3502,-0.3521,-0.3529,-0.3533,-0.3547,-0.3562,-0.3547,-0.3546,-0.3546,-0.356,-0.3561,-0.3562,-0.3562,0,0,-0.3169,-0.3228,-0.3231,-0.325,-0.3293,-0.3311,-0.3328,-0.3359,-0.3371,-0.3399,-0.3415,-0.3447,-0.3461,-0.348,-0.3502,-0.3509,-0.3502,-0.3523,-0.3524,-0.3518,-0.3511,-0.3501,-0.3499,-0.3515,-0.3515,-0.3515,-0.3509,0,-0.3161,-0.3197,-0.3228,-0.3251,-0.3272,-0.3304,-0.332,-0.3347,-0.337,-0.339,-0.3415,-0.3438,-0.3454,-0.3466,-0.3474,-0.3501,-0.3501,-0.3502,-0.3529,-0.353,-0.352,-0.3499,-0.3488,-0.348,-0.3508,-0.3508,-0.3508,0,-0.3158,-0.3186,-0.3211,-0.3252,-0.3262,-0.3275,-0.3306,-0.3325,-0.3356,-0.3372,-0.3393,-0.3416,-0.3435,-0.3447,-0.3474,-0.3474,-0.3486,-0.3501,-0.3501,-0.3505,-0.3518,-0.3502,-0.3479,-0.3478,-0.3508,-0.3508,-0.3508,0,-0.3129,-0.3172,-0.3193,-0.3208,-0.3256,-0.3264,-0.3284,-0.3316,-0.3332,-0.3358,-0.3369,-0.3397,-0.3412,-0.3432,-0.3462,-0.3468,-0.3485,-0.3499,-0.3498,-0.3497,-0.3501,-0.35,-0.3479,-0.3508,-0.3508,-0.3508,-0.3508,0,-0.3118,-0.3132,-0.318,-0.3193,-0.321,-0.3244,-0.326,-0.3282,-0.331,-0.3327,-0.3356,-0.3371,-0.3409,-0.3428,-0.3451,-0.3469,-0.3475,-0.3488,-0.3495,-0.3486,-0.3485,-0.3496,-0.3497,-0.3508,-0.3508,-0.3508,-0.3508,0,-0.3089,-0.3121,-0.3146,-0.3189,-0.32,-0.3211,-0.3247,-0.326,-0.3284,-0.3305,-0.3312,-0.3349,-0.3373,-0.3405,-0.3438,-0.3454,-0.3469,-0.3478,-0.3459,-0.3463,-0.3459,-0.3459,-0.3445,-0.3445,-0.3473,-0.3473,-0.3472,0,-0.308,-0.3092,-0.3136,-0.315,-0.3169,-0.3191,-0.3208,-0.3242,-0.3258,-0.3294,-0.3302,-0.3329,-0.3352,-0.3388,-0.3418,-0.3443,-0.3454,-0.3447,-0.3458,-0.3449,-0.3454,-0.3453,-0.3454,-0.3444,-0.3444,-0.3443,-0.3443,0,-0.3061,-0.3076,-0.31,-0.3129,-0.3149,-0.3173,-0.3198,-0.3208,-0.3247,-0.3263,-0.3288,-0.3306,-0.3341,-0.3366,-0.3395,-0.3415,-0.3435,-0.3439,-0.344,-0.3432,-0.3421,-0.3427,-0.3452,-0.3439,-0.344,-0.344,-0.344,-0.344,-0.3042,-0.3054,-0.3087,-0.3112,-0.3135,-0.3158,-0.3172,-0.3198,-0.322,-0.3251,-0.3269,-0.3293,-0.3323,-0.3365,-0.3383,-0.3402,-0.341,-0.3411,-0.3412,-0.3412,-0.3409,-0.3417,-0.3407,-0.3407,-0.3407,-0.3408,-0.3408,0,-0.3025,-0.3047,-0.307,-0.3105,-0.3124,-0.3142,-0.3171,-0.3186,-0.3207,-0.3233,-0.3255,-0.3284,-0.3308,-0.3339,-0.3366,-0.3375,-0.3385,-0.3381,-0.3381,-0.3385,-0.34,-0.3397,-0.3372,-0.3372,-0.3372,-0.3372,-0.3372,-0.3372,-0.3018,-0.3039,-0.3058,-0.309,-0.3112,-0.3137,-0.3152,-0.3173,-0.3194,-0.3224,-0.3245,-0.3266,-0.3294,-0.3322,-0.3345,-0.3353,-0.3362,-0.3355,-0.3366,-0.338,-0.3383,-0.3387,-0.3384,-0.3356,-0.3356,-0.3349,-0.3349,-0.3348]},{"header":{"parameterUnit":"m.s-1","parameterCategory":1,"la1":30.2991,"la2":30.254,"lo1":-89.0895,"lo2":-89.0444,"dy":0.0017,"dx":0.0017,"nx":28,"ny":28,"refTime":"2024-06-12T03:00:00:Z","depth":0,"parameterNumber":3,"parameterNumberName":"V-component_of_WINDS"},"data":[0,0,0,0,0,0,0,0,0,0,0,0,0,0,0,0,0,0,0,0,0,0,0,0,0,0,0,0,0,0,0,0,0,0,0,0,0,0,0,0,0,0,0,0,0,0,0,0,0,0,0,0,0,0,0,0,0,0,-1.7685,-1.7687,0,-1.7801,-1.7803,-1.7804,-1.784,-1.784,-1.7839,-1.7839,-1.7959,-1.7963,-1.7966,0,0,0,0,0,0,0,0,0,0,0,0,0,-1.7499,-1.7502,-1.7685,-1.7687,-1.7688,-1.7801,-1.7803,-1.7804,-1.7841,-1.784,-1.7839,-1.7839,-1.7958,-1.7962,-1.7967,0,0,0,0,0,0,0,0,0,0,0,0,0,-1.7594,-1.7503,-1.7685,-1.772,-1.7724,-1.7801,-1.7803,-1.7805,-1.7841,-1.784,-1.7839,-1.7838,-1.7957,-1.7962,-1.7967,-1.8018,0,0,-1.7984,-1.7987,0,0,0,0,0,0,0,0,-1.7588,-1.76,-1.7713,-1.7718,-1.7723,-1.7806,-1.7781,-1.7876,-1.7841,-1.7797,-1.7839,-1.7838,-1.7909,-1.7918,-1.7942,-1.8024,-1.8029,-1.7985,-1.7988,-1.7991,-1.7992,0,0,0,0,0,0,0,-1.7581,-1.7596,-1.7731,-1.7715,-1.7721,-1.7731,-1.7743,-1.7799,-1.7856,-1.78,-1.7803,-1.7816,-1.7911,-1.7936,-1.7945,-1.8031,-1.7985,-1.799,-1.7993,-1.7995,-1.8162,-1.8163,0,0,0,0,0,0,-1.7569,-1.759,-1.7728,-1.7735,-1.7652,-1.7735,-1.7749,-1.778,-1.7855,-1.7866,-1.7817,-1.7818,-1.7927,-1.7938,-1.7949,-1.8015,-1.7991,-1.7996,-1.7999,-1.8161,-1.8162,-1.8164,0,0,0,0,0,0,-1.7564,-1.7581,-1.7723,-1.7663,-1.7682,-1.7739,-1.7773,-1.7782,-1.7808,-1.7868,-1.7878,-1.7832,-1.7927,-1.7941,-1.8001,-1.8019,-1.7998,-1.8003,-1.816,-1.8161,-1.8163,-1.8145,0,0,0,0,0,0,-1.7559,-1.7579,-1.7598,-1.7663,-1.7685,-1.7772,-1.7774,-1.7785,-1.7817,-1.7819,-1.7885,-1.7895,-1.7928,-1.7993,-1.8007,-1.8027,-1.8008,-1.8158,-1.8161,-1.8162,-1.8144,-1.8146,-1.8147,0,0,0,0,0,-1.7552,-1.7588,-1.7599,-1.7615,-1.771,-1.7773,-1.7785,-1.7821,-1.7818,-1.7838,-1.7878,-1.7893,-1.8015,-1.7998,-1.8014,-1.8036,-1.8157,-1.816,-1.8162,-1.8143,-1.8145,-1.8147,0,0,0,0,0,0,-1.7524,-1.7597,-1.761,-1.7668,-1.7714,-1.7779,-1.7805,-1.7822,-1.787,-1.787,-1.7913,-1.7928,-1.7985,-1.8017,-1.7997,-1.8091,-1.8087,-1.8093,-1.8067,-1.807,-1.8071,-1.8062,-1.8012,0,0,0,0,0,-1.7524,-1.7568,-1.763,-1.7676,-1.7698,-1.7748,-1.7776,-1.78,-1.785,-1.7869,-1.7913,-1.7961,-1.801,-1.8042,-1.809,-1.8149,-1.8165,-1.8173,-1.8174,-1.8175,-1.8179,-1.8214,-1.8219,-1.8172,-1.8172,-1.8172,0,0,-1.7525,-1.7571,-1.7596,-1.7671,-1.771,-1.7755,-1.7764,-1.7811,-1.7846,-1.7877,-1.7936,-1.7969,-1.8026,-1.8086,-1.8114,-1.8114,-1.8196,-1.8178,-1.8178,-1.8182,-1.8217,-1.8222,-1.8226,-1.8173,-1.8173,-1.8173,0,0,-1.7551,-1.759,-1.7632,-1.7671,-1.7729,-1.7762,-1.7772,-1.7835,-1.7858,-1.7918,-1.7943,-1.7985,-1.8069,-1.8109,-1.814,-1.8183,-1.8199,-1.8198,-1.8205,-1.8239,-1.8242,-1.8246,-1.8262,-1.8267,-1.8202,-1.8202,-1.8202,0,-1.7546,-1.7614,-1.7652,-1.7699,-1.7732,-1.7762,-1.7806,-1.7842,-1.7913,-1.7935,-1.7934,-1.8041,-1.8081,-1.8151,-1.8162,-1.8186,-1.82,-1.819,-1.8239,-1.8243,-1.8247,-1.8262,-1.8268,-1.8201,-1.8201,-1.8201,-1.8201,0,-1.7605,-1.7653,-1.7681,-1.7748,-1.7784,-1.7829,-1.7875,-1.7907,-1.7929,-1.7962,-1.8023,-1.8073,-1.8133,-1.8151,-1.8173,-1.8225,-1.8223,-1.823,-1.8227,-1.825,-1.8266,-1.8272,-1.82,-1.8201,-1.8201,-1.8201,0,0,-1.7615,-1.7704,-1.7714,-1.7745,-1.7812,-1.785,-1.7898,-1.7956,-1.7983,-1.8032,-1.8073,-1.8144,-1.8151,-1.8187,-1.8213,-1.8242,-1.8274,-1.8246,-1.8248,-1.825,-1.8337,-1.8331,-1.8338,-1.8286,-1.8287,-1.8288,-1.8332,0,-1.765,-1.7735,-1.7771,-1.7839,-1.7885,-1.7915,-1.7956,-1.8003,-1.8036,-1.808,-1.8116,-1.8166,-1.8171,-1.8193,-1.8224,-1.8264,-1.8292,-1.8261,-1.8326,-1.8328,-1.8311,-1.8346,-1.834,-1.8379,-1.8338,-1.8339,-1.834,0,-1.7701,-1.775,-1.7823,-1.7886,-1.7906,-1.7942,-1.8,-1.8041,-1.8095,-1.8117,-1.8157,-1.8182,-1.8234,-1.8229,-1.8302,-1.828,-1.8309,-1.8333,-1.8336,-1.8343,-1.8335,-1.8354,-1.8392,-1.8398,-1.835,-1.8349,-1.8349,0,-1.7702,-1.7786,-1.7841,-1.7867,-1.7941,-1.7966,-1.7999,-1.8052,-1.8085,-1.8135,-1.8158,-1.8213,-1.8244,-1.8288,-1.8328,-1.832,-1.8398,-1.8395,-1.8419,-1.8418,-1.8433,-1.8432,-1.8476,-1.8452,-1.8452,-1.8451,-1.8451,0,-1.7737,-1.7781,-1.7842,-1.7876,-1.7926,-1.7968,-1.8017,-1.8052,-1.8099,-1.8141,-1.8171,-1.821,-1.8261,-1.8306,-1.8339,-1.8395,-1.8409,-1.8429,-1.8437,-1.8426,-1.8424,-1.8446,-1.8444,-1.8453,-1.8453,-1.8452,-1.8452,0,-1.7746,-1.7789,-1.7851,-1.7916,-1.7934,-1.7968,-1.8025,-1.806,-1.8095,-1.8147,-1.8162,-1.8217,-1.8273,-1.8318,-1.8391,-1.8412,-1.8472,-1.8481,-1.8453,-1.8458,-1.8479,-1.8476,-1.8539,-1.855,-1.8517,-1.8517,-1.8518,0,-1.7765,-1.78,-1.7869,-1.7899,-1.7931,-1.7979,-1.8013,-1.8057,-1.8091,-1.8156,-1.8183,-1.8241,-1.8289,-1.8377,-1.8424,-1.8481,-1.8491,-1.851,-1.85,-1.8489,-1.8493,-1.849,-1.8494,-1.851,-1.8511,-1.8511,-1.8511,0,-1.7796,-1.7816,-1.7863,-1.7919,-1.7959,-1.8005,-1.8051,-1.8075,-1.8127,-1.8164,-1.8221,-1.8259,-1.8334,-1.8391,-1.8453,-1.8488,-1.8508,-1.8514,-1.8522,-1.8512,-1.8495,-1.8505,-1.8457,-1.8512,-1.8512,-1.8512,-1.8512,-1.8512,-1.7811,-1.7844,-1.7898,-1.795,-1.799,-1.8033,-1.8069,-1.8109,-1.8157,-1.8221,-1.8244,-1.8303,-1.8358,-1.8442,-1.8478,-1.8526,-1.8527,-1.8539,-1.8543,-1.8545,-1.8544,-1.8487,-1.8537,-1.8537,-1.8537,-1.8537,-1.8537,0,-1.7844,-1.788,-1.7928,-1.7993,-1.8034,-1.805,-1.8103,-1.8137,-1.8188,-1.8237,-1.8285,-1.8351,-1.8407,-1.846,-1.8519,-1.8547,-1.8558,-1.8561,-1.856,-1.8568,-1.8539,-1.8526,-1.8551,-1.8551,-1.8551,-1.8551,-1.8551,-1.8551,-1.7865,-1.7921,-1.7948,-1.8024,-1.8061,-1.8118,-1.8147,-1.8188,-1.8228,-1.83,-1.8347,-1.838,-1.8431,-1.8495,-1.8548,-1.8562,-1.8582,-1.8583,-1.86,-1.8571,-1.8569,-1.8568,-1.8556,-1.8587,-1.8587,-1.8625,-1.8625,-1.8625]}]]